Temp
65 65 65 65 64 64 63 63 63 64 64 64 64 64 64 64 64 64 65 65 65 66 66 66 66 66 63 61 63 76 81 79 76 75 72 69 64 60 57 59 62 56 60 65 66 65 63
64 64 64 64 64 64 63 63 62 63 63 63 64 63 64 64 63 64 64 64 65 66 65 66 66 66 61 57 74 75 76 76 76 73 70 69 64 64 59 58 57 59 61 62 63 63 61
64 64 64 64 64 64 64 63 62 62 63 63 63 63 63 63 63 63 64 64 64 64 65 66 66 67 62 62 73 72 76 72 74 72 68 69 67 62 60 58 63 61 57 59 60 62 62
65 64 64 64 64 63 63 63 62 62 62 62 63 63 63 62 63 63 63 63 63 64 65 66 66 61 58 73 71 74 75 73 74 73 71 70 69 64 60 62 59 54 52 48 59 62 62
64 64 64 63 63 63 63 63 62 62 61 62 62 62 62 62 62 63 63 63 64 66 66 67 61 59 57 76 69 72 71 69 71 71 70 79 68 59 60 51 48 49 43 45 54 59 59
63 63 63 63 63 63 62 63 62 62 61 62 62 62 62 62 62 62 62 63 65 66 67 70 70 59 65 63 68 71 69 71 67 67 65 64 56 51 49 48 42 43 43 46 47 56 57
63 63 62 62 62 62 62 62 62 62 61 61 61 61 61 61 62 62 61 61 61 60 63 58 59 61 65 69 71 68 71 69 66 62 52 56 51 46 50 52 52 49 46 45 49 56 52
63 63 62 62 62 62 62 61 62 62 61 61 61 61 61 61 61 61 59 60 59 62 57 65 65 65 68 67 62 67 71 61 59 52 54 51 46 55 57 56 53 50 46 45 50 55 52
63 62 62 62 62 61 61 61 61 61 61 61 61 61 61 61 61 60 61 62 65 64 56 61 65 64 65 67 60 63 67 60 55 52 51 47 53 60 58 52 51 48 46 44 46 50 50
62 62 62 61 61 61 61 61 61 61 61 61 61 61 61 62 60 61 61 65 65 65 48 54 60 64 67 66 60 69 68 61 57 51 51 50 58 57 52 51 51 44 52 51 49 44 38
62 62 61 61 61 61 60 60 61 61 60 60 61 61 61 62 60 61 63 64 63 63 38 57 60 70 65 61 61 62 65 62 52 52 52 49 51 51 50 51 53 49 53 50 47 42 37
62 62 61 61 60 60 60 60 60 61 60 60 60 60 60 61 60 61 63 62 62 49 39 52 60 58 58 60 59 61 59 60 57 53 51 50 57 54 52 55 54 54 48 45 41 38 31
62 61 61 60 60 60 60 60 61 61 61 60 60 60 61 66 60 62 62 59 47 40 54 50 52 56 53 52 55 54 49 44 42 41 38 46 50 54 56 49 52 49 39 32 33 31 33
61 61 60 60 60 60 60 60 61 61 60 59 59 62 63 66 61 62 59 53 37 48 47 55 54 53 49 51 51 50 46 41 45 41 37 36 39 48 54 48 42 42 39 32 30 28 30
61 61 60 60 60 59 60 60 61 60 60 58 60 57 57 61 63 60 55 42 42 45 51 50 52 46 45 50 49 46 40 40 42 41 37 36 38 49 52 51 48 41 36 40 34 30 27
61 61 60 60 59 59 59 60 61 60 59 59 55 54 57 62 60 57 48 43 43 51 51 50 45 46 43 44 44 42 40 43 44 45 43 38 34 43 49 50 49 43 46 35 32 27 25
61 61 60 60 59 58 59 60 60 60 58 58 55 53 60 59 59 51 43 41 48 53 53 48 44 44 43 42 42 39 40 43 46 45 44 38 36 39 42 39 37 39 37 36 35 30 26
60 60 60 60 59 58 58 59 59 58 57 56 51 49 58 58 49 38 41 46 52 49 51 49 47 45 43 42 40 39 40 42 46 45 39 38 34 29 37 43 44 41 36 35 27 27 24
60 60 60 59 58 58 58 59 59 57 56 52 49 49 55 57 44 37 41 46 47 47 46 46 45 46 45 42 37 40 40 45 46 43 39 40 32 26 32 38 40 36 38 37 31 26 20
60 60 60 59 58 58 58 58 58 57 57 52 49 48 50 45 41 41 40 40 42 47 46 47 45 46 43 40 42 39 39 44 45 45 52 45 31 31 28 32 33 32 35 36 32 17 23
59 59 59 59 58 58 58 58 58 57 57 52 44 42 43 41 44 40 40 42 41 41 45 45 42 43 41 37 38 39 40 40 43 49 41 38 30 30 33 35 34 34 35 34 31 30 26
59 59 59 59 58 58 57 57 57 56 56 46 47 45 41 40 42 40 41 39 44 42 43 41 40 43 40 37 39 37 39 38 37 39 38 36 29 29 28 33 33 31 34 34 35 35 34
59 59 59 59 58 58 57 57 56 55 54 45 41 44 47 42 40 40 40 42 45 45 43 45 44 41 38 41 41 39 39 39 38 37 34 33 29 24 19 29 29 27 33 34 33 35 35
59 59 59 59 58 57 57 58 57 55 51 45 41 43 45 41 42 44 45 46 44 43 42 44 43 40 43 45 43 39 36 38 38 38 38 30 29 26 18 24 18 36 38 38 36 38 39
60 60 59 59 58 57 57 57 57 56 54 44 42 43 43 40 42 43 45 43 42 40 40 43 43 43 44 41 34 33 32 32 36 37 35 35 30 21 16 16 27 35 36 35 33 33 40
60 60 59 59 58 57 57 57 57 56 55 45 42 42 42 42 43 47 44 42 39 35 37 40 42 42 42 36 32 22 26 30 31 31 35 34 33 26 21 12 13 33 38 42 39 27 38
59 59 59 59 59 58 57 57 57 56 56 47 44 44 43 41 43 44 42 42 42 37 36 36 39 38 39 31 27 23 26 32 27 29 27 26 25 23 22 14 24 37 40 41 24 28 38
59 59 59 59 58 58 58 57 57 56 56 48 44 45 43 39 42 47 49 44 41 39 36 38 37 35 31 28 26 26 23 30 26 29 29 26 21 20 22 15 18 39 38 33 36 36 38
58 59 59 60 58 57 57 57 57 56 56 50 43 47 47 41 44 46 48 49 49 48 41 37 39 35 36 31 28 25 26 23 27 24 32 28 35 25 28 28 38 39 38 40 39 37 36
MSLP
1019.56 1019.37 1019.17 1018.96 1018.81 1018.73 1018.70 1018.69 1018.63 1018.55 1018.45 1018.36 1018.32 1018.31 1018.28 1018.27 1018.23 1018.16 1018.08 1017.99 1017.91 1017.81 1017.64 1017.48 1017.27 1017.06 1016.79 1016.34 1015.58 1014.77 1014.76 1014.68 1014.55 1014.43 1014.72 1014.94 1015.24 1015.41 1015.59 1015.66 1015.61 1015.68 1015.39 1015.21 1014.82 1014.46 1014.44
1019.75 1019.56 1019.39 1019.20 1019.05 1018.90 1018.79 1018.73 1018.67 1018.67 1018.63 1018.42 1018.27 1018.20 1018.23 1018.24 1018.19 1018.15 1018.07 1017.99 1017.89 1017.76 1017.63 1017.49 1017.24 1017.02 1016.84 1016.11 1015.13 1014.92 1014.94 1014.77 1014.71 1014.74 1015.02 1015.20 1015.53 1015.61 1015.79 1015.92 1015.97 1015.93 1015.74 1015.46 1014.91 1014.72 1014.69
1019.83 1019.63 1019.46 1019.27 1019.09 1018.89 1018.79 1018.66 1018.62 1018.54 1018.42 1018.31 1018.21 1018.17 1018.16 1018.16 1018.14 1018.05 1017.99 1017.90 1017.86 1017.74 1017.59 1017.40 1017.23 1017.11 1016.49 1015.71 1015.24 1015.12 1015.04 1014.97 1014.95 1015.02 1015.25 1015.41 1015.51 1015.72 1016.03 1016.13 1016.09 1016.11 1016.09 1015.62 1015.15 1015.10 1015.06
1019.86 1019.64 1019.47 1019.27 1019.09 1018.91 1018.67 1018.51 1018.40 1018.37 1018.31 1018.24 1018.18 1018.15 1018.13 1018.08 1017.97 1017.86 1017.75 1017.74 1017.68 1017.52 1017.38 1017.22 1017.17 1017.03 1016.21 1015.24 1015.19 1015.05 1014.99 1014.95 1014.96 1015.16 1015.34 1015.38 1015.50 1015.94 1016.28 1016.35 1016.58 1016.70 1016.67 1016.61 1015.84 1015.56 1015.57
1019.99 1019.73 1019.49 1019.33 1019.15 1018.91 1018.67 1018.42 1018.30 1018.26 1018.23 1018.17 1018.09 1018.05 1018.02 1017.96 1017.84 1017.67 1017.62 1017.54 1017.39 1017.23 1017.12 1017.12 1017.14 1016.84 1016.05 1015.25 1015.31 1015.19 1015.15 1015.35 1015.35 1015.38 1015.35 1015.45 1015.75 1016.75 1016.87 1017.33 1017.74 1017.87 1017.62 1017.41 1016.83 1016.60 1016.84
1020.32 1019.95 1019.63 1019.39 1019.18 1018.93 1018.68 1018.41 1018.26 1018.15 1018.08 1018.01 1018.00 1017.96 1017.87 1017.73 1017.62 1017.56 1017.47 1017.39 1017.14 1016.93 1016.97 1016.96 1016.86 1016.81 1015.95 1015.79 1015.50 1015.41 1015.31 1015.35 1015.49 1015.71 1015.91 1016.16 1017.03 1017.51 1017.97 1018.03 1018.49 1018.22 1018.08 1017.92 1017.82 1017.47 1017.64
1020.70 1020.28 1019.84 1019.49 1019.21 1018.92 1018.64 1018.33 1018.07 1017.91 1017.80 1017.76 1017.76 1017.75 1017.71 1017.61 1017.56 1017.47 1017.24 1017.20 1017.56 1017.34 1016.87 1016.84 1016.67 1016.34 1015.96 1015.76 1015.61 1015.62 1015.48 1015.58 1015.72 1016.22 1016.77 1017.09 1017.67 1018.10 1017.92 1017.88 1017.84 1017.92 1018.13 1018.37 1018.13 1018.15 1018.67
1020.99 1020.56 1020.13 1019.72 1019.28 1018.96 1018.68 1018.42 1018.11 1017.81 1017.65 1017.60 1017.62 1017.65 1017.62 1017.59 1017.47 1017.37 1017.34 1017.26 1017.12 1017.12 1017.02 1016.51 1016.26 1016.11 1015.88 1015.74 1015.90 1015.83 1015.67 1016.03 1016.29 1016.98 1017.21 1017.71 1017.79 1017.48 1017.49 1017.66 1017.77 1018.00 1018.26 1018.43 1018.40 1018.57 1019.19
1021.11 1020.79 1020.35 1019.82 1019.41 1019.00 1018.59 1018.30 1018.10 1017.81 1017.49 1017.36 1017.39 1017.43 1017.48 1017.47 1017.38 1017.36 1017.17 1017.12 1016.85 1016.84 1016.93 1016.66 1016.20 1015.93 1015.82 1015.93 1016.19 1016.16 1016.20 1016.46 1016.90 1017.39 1017.65 1017.82 1017.61 1017.28 1017.38 1017.72 1017.91 1018.13 1018.32 1018.64 1019.17 1019.33 1019.83
1021.06 1020.78 1020.52 1020.09 1019.56 1019.06 1018.62 1018.17 1017.80 1017.63 1017.50 1017.31 1017.29 1017.31 1017.36 1017.29 1017.66 1017.40 1017.26 1017.00 1016.85 1016.82 1017.24 1017.02 1016.24 1015.80 1015.91 1016.03 1016.47 1016.46 1016.61 1017.07 1017.45 1017.93 1018.03 1018.06 1017.57 1017.44 1017.58 1017.86 1018.26 1018.33 1018.33 1018.81 1019.24 1019.97 1020.49
1021.23 1020.86 1020.38 1019.98 1019.59 1019.11 1018.68 1018.17 1017.75 1017.49 1017.39 1017.33 1017.21 1017.21 1017.30 1017.29 1017.36 1017.36 1017.29 1016.97 1016.88 1017.10 1017.48 1017.12 1016.20 1015.70 1015.98 1016.47 1016.93 1017.33 1017.61 1017.44 1018.31 1018.57 1018.72 1018.52 1018.06 1017.90 1017.97 1018.17 1018.44 1018.62 1018.75 1019.20 1019.63 1020.36 1020.91
1021.29 1020.92 1020.54 1020.03 1019.47 1019.08 1018.63 1018.21 1017.82 1017.54 1017.40 1017.33 1017.32 1017.25 1017.36 1017.32 1017.41 1017.24 1017.06 1016.93 1017.23 1017.83 1017.53 1017.04 1016.49 1016.35 1016.69 1017.06 1017.45 1018.08 1018.52 1018.77 1019.30 1019.32 1019.40 1019.27 1018.63 1018.51 1018.48 1018.52 1018.88 1019.20 1019.39 1019.97 1020.63 1021.30 1021.76
1021.43 1021.05 1020.63 1020.15 1019.62 1019.03 1018.50 1018.17 1017.83 1017.54 1017.36 1017.30 1017.29 1017.28 1017.31 1017.09 1017.38 1017.13 1017.14 1017.65 1018.24 1018.46 1018.09 1017.86 1017.44 1017.36 1017.68 1018.14 1018.51 1019.28 1020.55 1021.09 1021.42 1021.28 1021.32 1020.61 1019.79 1019.28 1019.05 1019.16 1019.36 1019.74 1020.74 1021.42 1022.03 1022.47 1022.11
1021.85 1021.28 1020.69 1020.19 1019.82 1019.17 1018.65 1018.16 1017.84 1017.59 1017.38 1017.21 1017.08 1016.94 1017.12 1017.11 1017.18 1017.21 1017.67 1018.48 1018.91 1018.97 1018.74 1018.43 1018.23 1018.26 1018.64 1019.02 1019.70 1020.66 1021.76 1022.74 1022.78 1022.73 1022.84 1022.30 1021.24 1020.53 1020.11 1020.23 1020.69 1021.23 1021.99 1022.91 1023.46 1023.81 1023.26
1022.32 1021.79 1021.26 1020.62 1019.85 1019.42 1018.81 1018.28 1017.91 1017.60 1017.39 1017.21 1017.11 1017.52 1017.63 1017.44 1017.29 1017.56 1018.29 1019.31 1019.74 1019.79 1019.63 1019.32 1019.03 1019.22 1019.53 1019.80 1020.40 1021.45 1022.66 1023.47 1023.81 1023.69 1023.43 1023.27 1022.38 1021.49 1020.98 1020.95 1021.37 1021.86 1022.54 1023.29 1024.02 1024.78 1024.88
1022.61 1022.00 1021.46 1020.89 1020.36 1019.68 1018.97 1018.45 1018.02 1017.68 1017.37 1017.20 1017.74 1018.12 1018.05 1017.55 1017.46 1018.08 1019.28 1020.44 1020.70 1020.49 1020.29 1020.11 1020.07 1020.17 1020.48 1020.70 1021.19 1021.86 1022.99 1023.86 1024.02 1023.97 1023.90 1024.32 1023.87 1022.79 1022.11 1021.79 1022.03 1022.27 1023.11 1024.01 1025.14 1025.95 1025.85
1022.83 1022.22 1021.61 1020.97 1020.36 1019.74 1019.22 1018.54 1017.99 1017.69 1017.37 1017.27 1018.06 1018.77 1018.14 1017.78 1017.84 1018.98 1020.73 1021.27 1021.15 1020.97 1020.82 1020.87 1020.82 1020.91 1021.17 1021.40 1021.76 1022.46 1023.38 1024.10 1024.08 1024.49 1024.58 1024.87 1025.01 1024.23 1023.54 1023.25 1023.32 1023.52 1023.98 1025.01 1025.92 1026.85 1027.19
1023.18 1022.59 1021.96 1021.38 1020.76 1020.08 1019.50 1018.90 1018.34 1017.87 1017.49 1017.35 1018.68 1019.28 1018.52 1018.12 1019.37 1021.09 1021.71 1021.59 1021.32 1021.37 1021.17 1021.26 1021.36 1021.43 1021.62 1021.88 1022.33 1023.02 1023.74 1024.33 1024.60 1024.90 1025.33 1025.72 1026.03 1025.83 1024.87 1024.09 1024.18 1024.32 1024.75 1025.66 1027.06 1028.04 1028.27
1023.52 1023.03 1022.40 1021.81 1021.14 1020.47 1019.82 1019.12 1018.46 1017.95 1017.64 1018.05 1019.41 1019.52 1018.83 1018.68 1020.73 1022.23 1022.18 1022.13 1021.99 1021.80 1021.84 1021.70 1021.84 1021.89 1022.01 1022.45 1023.17 1023.71 1024.40 1024.89 1025.04 1025.32 1025.79 1026.24 1026.88 1026.78 1025.94 1025.44 1024.79 1025.06 1025.51 1026.22 1027.46 1028.34 1028.34
1023.73 1023.25 1022.77 1022.24 1021.57 1020.82 1020.17 1019.46 1018.76 1017.95 1017.50 1018.09 1019.97 1020.60 1020.29 1020.92 1022.04 1022.08 1022.43 1022.48 1022.42 1022.21 1022.17 1022.17 1022.33 1022.34 1022.57 1023.00 1023.44 1024.15 1024.85 1025.31 1025.52 1025.74 1025.98 1026.46 1027.28 1027.13 1026.52 1025.87 1025.81 1026.14 1026.13 1026.63 1027.36 1028.47 1027.63
1024.13 1023.64 1023.14 1022.66 1022.03 1021.23 1020.52 1019.84 1019.10 1018.34 1017.80 1018.43 1020.88 1022.22 1022.19 1022.90 1022.72 1022.43 1022.30 1022.48 1022.56 1022.56 1022.57 1022.64 1022.90 1022.99 1023.24 1023.76 1024.12 1024.56 1025.17 1025.81 1026.05 1025.99 1026.70 1027.46 1027.97 1027.82 1027.03 1026.73 1026.67 1026.34 1026.00 1026.49 1026.94 1026.82 1026.70
1024.47 1024.16 1023.67 1023.20 1022.59 1021.85 1021.09 1020.30 1019.57 1018.59 1017.92 1019.37 1021.51 1022.14 1022.73 1022.91 1022.70 1022.48 1022.61 1022.62 1022.65 1022.82 1022.89 1023.09 1023.32 1023.54 1023.79 1024.14 1024.45 1024.96 1025.41 1025.89 1026.11 1026.73 1027.30 1028.00 1028.40 1028.66 1028.17 1027.33 1027.05 1026.27 1025.08 1025.42 1025.49 1025.49 1024.97
1024.72 1024.43 1024.14 1023.80 1023.35 1022.68 1021.99 1021.23 1020.34 1019.20 1018.26 1020.40 1022.01 1021.99 1021.92 1023.19 1022.97 1022.81 1022.74 1022.57 1022.68 1022.86 1023.35 1023.36 1023.53 1023.99 1024.35 1024.58 1024.87 1025.24 1025.60 1025.94 1026.15 1026.82 1027.67 1028.50 1029.18 1029.86 1029.28 1028.52 1027.59 1025.69 1023.30 1023.61 1023.67 1023.51 1023.32
1024.97 1024.70 1024.47 1024.18 1023.88 1023.44 1022.87 1022.23 1021.58 1020.92 1020.67 1021.45 1022.67 1022.51 1022.60 1023.47 1023.05 1022.76 1022.58 1022.64 1022.98 1023.20 1023.52 1023.86 1024.06 1024.34 1024.78 1024.94 1025.41 1025.78 1026.06 1026.20 1026.51 1026.82 1027.28 1028.51 1029.50 1030.19 1030.35 1029.32 1027.48 1023.22 1022.46 1022.31 1022.39 1022.29 1022.16
1025.02 1024.83 1024.71 1024.53 1024.28 1023.99 1023.59 1023.13 1022.65 1022.18 1021.82 1022.36 1023.01 1023.02 1023.14 1023.36 1023.18 1022.88 1022.79 1022.99 1023.41 1023.68 1023.98 1024.21 1024.56 1024.91 1025.05 1025.66 1026.50 1026.68 1026.78 1026.60 1026.28 1026.67 1027.45 1028.05 1029.23 1030.51 1030.90 1030.07 1026.61 1022.69 1022.04 1022.12 1022.21 1021.33 1021.11
1024.93 1024.84 1024.80 1024.70 1024.51 1024.36 1024.12 1023.78 1023.41 1023.03 1022.64 1022.90 1023.47 1023.53 1023.38 1023.52 1023.15 1022.52 1022.91 1023.20 1023.78 1024.35 1024.60 1024.73 1025.10 1025.33 1025.72 1026.78 1027.60 1027.98 1027.51 1026.67 1026.80 1027.11 1027.62 1028.45 1029.00 1030.12 1030.97 1030.54 1027.64 1022.93 1021.93 1021.68 1021.87 1021.39 1020.82
1024.81 1024.79 1024.76 1024.68 1024.62 1024.58 1024.45 1024.24 1023.97 1023.62 1023.26 1023.33 1023.80 1023.79 1023.67 1023.87 1023.10 1022.71 1022.78 1023.10 1023.40 1024.25 1024.88 1025.27 1025.58 1026.02 1026.33 1027.46 1028.40 1028.67 1027.77 1026.98 1026.89 1027.11 1027.89 1028.74 1029.48 1029.66 1030.00 1029.41 1025.89 1022.23 1021.70 1021.91 1022.60 1021.45 1021.09
1024.64 1024.59 1024.65 1024.68 1024.68 1024.64 1024.59 1024.53 1024.33 1024.06 1023.75 1023.73 1024.27 1024.07 1024.17 1024.26 1023.28 1022.63 1022.43 1022.56 1023.12 1023.54 1024.33 1025.26 1026.01 1026.50 1027.30 1027.92 1028.41 1028.39 1028.27 1027.58 1027.30 1026.81 1026.77 1027.18 1028.00 1028.54 1028.83 1028.34 1024.60 1021.26 1021.62 1021.62 1020.44 1020.67 1020.95
1024.67 1024.58 1024.43 1024.38 1024.54 1024.59 1024.57 1024.58 1024.50 1024.42 1024.20 1024.04 1024.59 1024.36 1024.36 1024.61 1023.69 1022.88 1022.22 1021.91 1021.95 1022.21 1023.03 1024.34 1024.74 1025.13 1025.83 1026.94 1027.89 1028.38 1028.41 1028.01 1027.60 1027.09 1026.05 1026.08 1024.80 1025.16 1025.21 1022.58 1020.84 1020.38 1019.71 1019.60 1020.07 1020.51 1020.90
Wind_Speed
10 9 9 8 8 6 4 2 1 1 2 2 1 2 3 4 5 5 6 7 8 8 8 8 9 9 3 2 1 3 4 6 3 3 4 4 4 2 1 3 5 2 3 5 7 10 6
11 9 8 7 5 5 4 2 1 1 3 3 3 3 4 5 5 6 6 7 8 8 7 8 8 9 2 2 3 2 5 4 4 4 4 5 2 1 0 1 0 3 4 8 6 8 2
9 9 8 8 7 5 3 1 1 1 2 3 4 4 5 5 6 6 6 7 8 7 7 7 7 2 1 2 3 5 4 2 3 2 2 1 1 2 1 3 3 3 6 7 3 6 4
11 10 9 9 8 7 6 5 4 4 4 5 5 5 5 5 6 6 6 7 7 7 7 4 4 1 1 3 2 3 3 4 3 2 1 1 2 2 1 3 7 4 5 4 4 9 5
12 12 11 11 10 9 7 6 5 5 5 6 6 6 6 5 5 6 7 8 8 6 4 3 1 0 1 5 2 3 1 2 4 2 2 1 4 3 5 4 5 6 1 1 9 4 4
13 13 12 12 11 10 8 7 6 6 6 6 6 6 6 5 5 6 8 6 5 4 1 2 2 3 3 1 2 3 1 1 2 3 4 5 6 4 4 5 3 3 3 2 4 6 7
13 13 13 13 13 12 10 8 7 6 6 6 6 6 5 5 5 6 4 2 5 5 3 2 1 2 0 3 2 3 2 3 3 6 3 4 6 2 6 5 3 2 2 4 5 2 5
14 14 14 14 14 13 11 9 8 6 4 4 5 5 4 5 4 3 1 4 2 3 5 2 1 1 0 1 2 4 3 3 4 1 1 6 2 4 3 2 1 1 3 5 5 3 3
15 15 15 16 15 14 13 11 8 7 4 2 3 4 3 3 2 1 2 3 2 3 5 2 2 1 1 2 1 4 4 1 3 1 3 4 2 2 2 2 4 3 4 3 5 4 5
17 17 16 16 16 16 14 13 10 8 6 4 1 3 2 2 1 1 2 4 3 1 6 3 1 1 2 2 4 1 4 2 4 1 1 3 3 2 2 0 2 4 2 2 4 5 2
17 18 19 18 18 17 15 13 10 8 6 5 3 2 3 3 4 2 1 3 1 4 2 1 0 1 1 3 2 4 4 4 2 2 4 3 3 3 2 1 2 6 4 4 2 3 3
19 19 19 19 19 18 15 13 10 7 6 5 4 4 5 1 2 1 2 3 4 7 3 1 2 2 2 4 2 2 7 8 1 3 5 3 4 2 1 0 2 6 3 5 4 3 1
20 20 20 20 20 19 17 14 11 8 7 5 3 1 3 1 2 1 3 4 6 5 2 1 1 2 3 2 3 5 5 8 5 3 5 7 2 5 4 3 4 10 8 5 5 4 6
20 21 22 22 21 20 17 15 12 10 8 7 6 3 3 1 2 2 4 5 2 2 1 2 2 2 2 2 4 4 3 3 5 4 3 1 2 5 7 3 2 3 3 5 5 3 6
19 20 20 22 23 21 19 16 13 11 9 8 3 3 2 3 2 3 6 4 3 1 1 2 2 2 0 1 3 5 3 2 1 2 4 3 3 5 3 3 3 0 2 2 0 1 1
19 20 21 22 23 23 22 18 15 13 9 4 3 3 3 4 2 5 7 3 1 1 2 1 4 1 6 2 1 3 3 2 3 3 2 2 4 1 5 1 3 2 3 1 3 3 6
20 21 22 24 24 23 22 22 18 15 10 2 4 4 4 4 4 7 4 4 3 2 1 2 2 2 2 2 1 1 2 3 2 3 4 1 3 4 2 2 1 5 1 4 4 4 4
20 21 22 23 24 23 23 23 20 15 8 8 3 3 3 3 6 2 3 1 1 2 5 3 4 2 2 2 3 2 3 1 1 1 2 1 4 4 6 4 3 2 2 4 6 4 1
19 21 22 23 24 24 24 24 22 16 5 5 3 2 3 4 3 1 1 3 3 2 3 2 2 2 1 3 2 3 3 1 2 2 5 4 1 3 3 5 3 2 2 4 5 4 7
19 21 22 23 23 25 25 25 25 21 4 5 4 3 6 6 1 7 4 2 2 2 2 3 2 2 2 2 2 4 3 3 2 2 5 3 3 6 8 4 2 4 5 4 6 4 4
18 20 22 23 24 25 27 27 27 24 5 5 4 1 3 2 5 4 3 3 3 1 2 2 2 0 3 4 3 4 3 3 1 4 3 4 5 4 6 7 4 8 13 9 10 7 9
15 18 20 22 24 25 26 28 28 29 5 7 5 5 3 2 1 3 3 3 5 2 3 1 2 3 2 3 5 6 5 4 5 2 5 0 2 3 7 4 2 8 12 12 16 15 17
15 16 18 20 22 24 25 26 29 30 10 4 1 1 5 3 2 3 2 3 4 6 0 0 3 4 2 3 3 2 2 2 3 8 7 5 4 3 6 5 8 10 10 14 6 6 10
12 13 15 18 20 21 23 24 25 26 13 3 1 2 4 1 1 3 3 2 4 3 3 1 3 4 2 3 3 3 1 4 4 6 4 6 5 3 4 5 2 6 3 4 8 6 11
9 11 12 14 15 18 20 22 24 23 17 5 2 3 3 1 1 0 4 4 4 2 1 5 2 1 4 5 3 3 3 3 4 6 7 4 5 0 1 3 10 9 1 8 7 7 11
8 9 9 10 12 13 16 18 20 20 18 4 2 0 4 5 5 3 4 4 4 3 1 1 2 2 5 3 3 4 5 4 3 3 4 5 4 5 3 3 7 5 3 3 4 10 5
6 7 9 9 10 9 12 15 16 16 17 4 2 3 4 2 3 3 4 6 6 3 2 1 4 2 3 3 2 4 5 3 4 6 6 4 2 9 5 4 12 13 8 3 4 9 5
10 6 6 6 7 8 7 10 13 15 16 5 1 4 3 1 5 4 4 5 2 3 5 4 4 1 3 3 4 3 3 4 2 3 6 8 8 5 4 3 13 8 5 9 7 4 3
7 10 9 6 4 4 4 5 8 11 14 5 2 3 1 3 5 2 4 3 5 7 7 4 3 5 6 4 1 3 2 1 3 4 1 5 8 7 12 12 4 6 3 3 4 4 3
Wind_Direction
31 30 28 32 41 58 77 70 76 255 331 331 295 295 280 276 274 275 279 284 288 291 304 316 327 336 334 52 350 314 336 329 325 13 44 27 49 19 321 330 341 205 306 327 299 297 266
24 22 25 29 34 44 50 47 39 224 238 256 279 281 274 268 270 273 278 281 286 293 308 316 330 331 322 97 299 325 337 350 19 44 34 46 113 210 252 282 158 313 291 291 295 309 282
25 24 18 18 20 18 10 7 304 257 261 282 291 275 268 267 269 273 281 290 291 296 304 315 326 328 45 174 342 337 332 337 345 42 64 78 138 72 132 324 339 326 337 334 359 330 43
22 21 18 15 11 3 354 336 319 305 289 286 282 276 274 275 276 281 291 288 284 286 290 313 354 351 143 302 296 347 356 358 2 321 175 211 87 98 104 303 15 31 46 21 311 359 350
20 16 12 11 8 1 349 333 321 303 285 276 273 273 272 274 283 294 289 287 284 277 288 277 38 335 97 323 16 320 38 335 314 336 337 17 56 77 19 63 11 5 272 329 324 74 353
21 15 9 7 7 5 356 344 322 305 281 270 266 268 274 283 289 291 291 272 281 305 122 188 260 44 339 340 317 336 324 23 44 343 24 48 47 60 35 64 239 276 332 303 257 320 6
23 17 10 7 6 5 3 350 337 323 299 275 266 264 266 275 287 302 324 80 31 9 42 101 166 125 69 297 27 2 346 1 49 50 59 12 54 268 230 197 201 228 232 250 254 258 73
25 20 14 9 6 6 5 360 347 331 310 268 247 244 252 266 285 298 270 95 157 180 92 8 81 73 132 146 61 336 9 67 49 20 45 24 247 233 192 130 207 259 274 279 295 327 81
25 22 17 10 8 6 3 0 358 352 344 322 225 223 231 269 246 11 82 117 343 139 96 338 292 123 210 82 101 337 37 56 64 39 35 154 239 109 145 47 19 287 230 239 229 330 68
20 19 19 15 8 4 2 0 0 5 16 23 166 198 197 213 76 276 47 338 359 91 80 307 10 353 74 117 51 22 20 87 33 85 347 232 311 128 66 65 154 287 199 293 300 38 237
22 18 13 12 11 6 2 359 1 4 14 32 47 134 166 231 157 96 261 331 34 56 47 180 301 222 77 86 163 19 7 31 88 317 77 263 23 20 321 215 222 247 317 282 284 208 350
19 16 14 12 9 8 5 2 3 10 21 35 53 76 156 47 47 304 339 33 51 48 251 47 60 3 93 16 38 85 23 35 63 61 15 295 292 48 266 346 36 297 349 37 54 96 339
14 13 10 11 12 9 7 10 8 11 15 21 22 0 169 129 174 356 53 49 50 128 22 254 100 53 75 1 44 55 49 16 42 78 12 341 0 337 23 359 18 32 36 339 349 1 231
11 10 8 8 14 12 13 13 14 11 6 356 351 51 344 87 11 77 58 53 153 142 207 360 49 86 130 13 47 55 72 45 16 41 88 101 249 4 334 63 346 19 121 150 276 270 290
12 11 10 10 8 14 14 15 14 10 359 350 74 11 31 307 129 68 74 78 210 218 340 18 44 120 264 23 114 91 64 119 11 335 116 54 274 318 46 353 97 42 39 182 133 26 23
12 11 10 10 10 10 12 14 12 6 358 0 77 43 315 321 82 64 75 161 164 336 359 213 182 24 185 262 166 99 184 247 159 61 56 153 329 351 298 26 45 105 161 47 12 294 285
13 12 10 7 7 7 9 9 7 3 353 138 60 58 270 349 54 50 123 190 154 87 96 52 164 120 130 173 103 67 112 332 28 55 82 105 112 296 355 54 126 351 356 64 126 145 213
13 12 11 8 4 5 6 7 5 1 357 56 95 60 310 50 53 34 120 94 35 351 20 62 102 94 104 66 64 85 203 324 148 125 101 18 131 253 238 285 251 254 174 127 131 230 175
13 11 11 9 5 4 5 4 4 357 352 123 102 198 328 93 124 62 234 72 75 51 36 46 101 60 100 129 113 127 137 38 135 119 163 169 239 344 323 352 360 136 145 125 105 90 210
10 10 10 9 7 5 5 5 5 1 358 85 87 54 339 49 60 123 133 128 96 16 70 62 113 78 87 113 63 165 149 221 199 142 121 94 177 201 198 192 132 254 213 177 132 139 207
9 9 8 9 9 6 5 7 7 5 17 90 33 183 185 4 0 85 91 136 123 188 35 49 40 194 160 164 174 186 141 138 264 207 91 131 226 224 253 244 227 240 244 214 216 198 205
9 9 9 9 9 8 7 7 8 4 21 78 113 123 22 105 313 89 6 184 159 175 150 206 187 172 151 184 197 202 148 183 195 152 157 177 258 36 299 348 308 272 261 225 237 240 250
9 9 9 11 11 10 9 11 10 8 14 87 334 26 104 309 48 84 219 156 195 136 139 269 197 125 225 236 158 165 126 125 182 165 180 162 139 88 267 346 318 286 247 203 205 195 214
2 6 8 10 11 12 11 13 15 15 35 95 49 86 83 220 127 185 180 126 158 192 178 173 119 136 173 111 90 80 99 240 209 222 158 144 125 124 260 351 318 249 303 198 199 233 234
346 353 3 8 12 12 13 14 16 16 22 70 13 70 96 139 175 144 135 124 113 60 137 167 185 137 124 60 50 4 328 300 230 218 195 159 130 232 146 215 294 282 242 188 185 262 229
331 340 351 359 8 10 13 14 16 13 16 75 48 109 86 111 253 124 151 172 171 187 334 132 57 135 72 87 89 176 225 231 239 141 47 94 88 134 127 167 239 245 165 80 110 286 179
291 321 336 346 354 8 10 10 14 14 15 60 23 23 77 88 259 135 181 180 138 124 135 152 170 141 51 115 154 184 246 203 221 189 168 132 186 210 207 245 281 247 219 52 88 247 177
350 286 299 322 338 352 5 8 8 13 14 41 290 10 88 133 270 205 198 152 132 146 157 180 67 332 73 161 156 223 179 233 293 221 181 172 158 198 141 171 265 161 75 175 209 201 211
344 357 324 285 286 315 336 359 6 13 12 42 27 341 24 141 250 295 264 265 187 188 140 195 194 160 176 108 216 102 215 73 179 260 163 244 201 187 187 214 249 219 227 174 160 179 234